| time (UTC) | temp F | wind direction | speed MPH | gust MPH | rain 1hr in | rain 24hr in | rain mn in | humidity % | barometer mb |
| 20260508023007 | 62 | 132 | 6.0 | 11.0 | 0.00 | 0.00 | 0.00 | 65 | 1009.6 |
| 20260508021504 | 62 | 124 | 7.0 | 9.0 | 0.00 | 0.00 | 0.00 | 64 | 1009.7 |
| 20260508020003 | 62 | 119 | 6.0 | 12.0 | 0.00 | 0.00 | 0.00 | 66 | 1009.7 |
| 20260508014503 | 62 | 120 | 8.0 | 12.0 | 0.00 | 0.00 | 0.00 | 64 | 1009.7 |
| 20260508013008 | 63 | 127 | 6.0 | 12.0 | 0.00 | 0.00 | 0.00 | 60 | 1009.8 |
| 20260508011504 | 63 | 119 | 6.0 | 11.0 | 0.00 | 0.00 | 0.00 | 59 | 1009.8 |
| 20260508010004 | 63 | 125 | 6.0 | 11.0 | 0.00 | 0.00 | 0.00 | 58 | 1009.9 |
| 20260508004504 | 63 | 118 | 5.0 | 10.0 | 0.00 | 0.00 | 0.00 | 58 | 1010.2 |
| 20260508001505 | 62 | 113 | 6.0 | 10.0 | 0.00 | 0.00 | 0.00 | 61 | 1010.7 |
| 20260508000004 | 62 | 121 | 6.0 | 10.0 | 0.00 | 0.00 | 0.00 | 61 | 1010.9 |
| 20260507234503 | 62 | 123 | 6.0 | 12.0 | 0.00 | 0.00 | 0.00 | 64 | 1011.0 |
| 20260507233003 | 61 | 107 | 3.0 | 11.0 | 0.00 | 0.00 | 0.00 | 68 | 1011.3 |
| 20260507231504 | 60 | 4 | 3.0 | 6.0 | 0.00 | 0.00 | 0.00 | 74 | 1011.5 |
| 20260507230004 | 62 | 35 | 2.0 | 5.0 | 0.00 | 0.00 | 0.00 | 65 | 1011.4 |
| 20260507224504 | 63 | 116 | 4.0 | 7.0 | 0.00 | 0.00 | 0.00 | 61 | 1011.6 |
| 20260507223004 | 63 | 121 | 6.0 | 12.0 | 0.00 | 0.00 | 0.00 | 62 | 1011.7 |
| 20260507220005 | 63 | 124 | 7.0 | 12.0 | 0.00 | 0.00 | 0.00 | 63 | 1011.8 |
| 20260507211503 | 63 | 121 | 7.0 | 11.0 | 0.00 | 0.00 | 0.00 | 69 | 1011.8 |
| 20260507204505 | 63 | 126 | 7.0 | 12.0 | 0.00 | 0.00 | 0.00 | 76 | 1011.8 |
| 20260507203004 | 63 | 126 | 7.0 | 13.0 | 0.00 | 0.00 | 0.00 | 75 | 1011.8 |
| 20260507201503 | 63 | 125 | 7.0 | 15.0 | 0.00 | 0.00 | 0.00 | 75 | 1011.7 |
| 20260507200003 | 63 | 128 | 8.0 | 12.0 | 0.00 | 0.00 | 0.00 | 76 | 1011.9 |
| 20260507194503 | 63 | 124 | 8.0 | 14.0 | 0.00 | 0.00 | 0.00 | 76 | 1011.7 |
| 20260507193003 | 63 | 127 | 8.0 | 13.0 | 0.00 | 0.00 | 0.00 | 73 | 1011.8 |
| 20260507191503 | 63 | 123 | 7.0 | 14.0 | 0.00 | 0.00 | 0.00 | 73 | 1011.6 |
| 20260507190004 | 63 | 128 | 8.0 | 13.0 | 0.00 | 0.00 | 0.00 | 73 | 1011.7 |
| 20260507180003 | 64 | 123 | 6.0 | 11.0 | 0.00 | 0.00 | 0.00 | 71 | 1012.0 |
| 20260507174504 | 65 | 126 | 6.0 | 11.0 | 0.00 | 0.00 | 0.00 | 72 | 1011.8 |
| 20260507173003 | 65 | 125 | 6.0 | 11.0 | 0.00 | 0.00 | 0.00 | 71 | 1011.9 |
| 20260507171503 | 66 | 121 | 6.0 | 10.0 | 0.00 | 0.00 | 0.00 | 71 | 1012.0 |
| 20260507170004 | 66 | 123 | 6.0 | 11.0 | 0.00 | 0.00 | 0.00 | 71 | 1011.8 |
| 20260507164507 | 66 | 115 | 6.0 | 11.0 | 0.00 | 0.00 | 0.00 | 72 | 1011.9 |
| 20260507163006 | 67 | 118 | 5.0 | 12.0 | 0.00 | 0.00 | 0.00 | 71 | 1011.9 |
| 20260507160003 | 68 | 106 | 6.0 | 9.0 | 0.00 | 0.00 | 0.00 | 68 | 1011.9 |
| 20260507154504 | 69 | 110 | 5.0 | 11.0 | 0.00 | 0.00 | 0.00 | 67 | 1011.9 |
| 20260507153006 | 69 | 40 | 5.0 | 9.0 | 0.00 | 0.00 | 0.00 | 65 | 1011.9 |
| 20260507151503 | 71 | 131 | 3.0 | 8.0 | 0.00 | 0.00 | 0.00 | 63 | 1011.8 |
| 20260507144506 | 71 | 203 | 3.0 | 9.0 | 0.00 | 0.00 | 0.00 | 56 | 1012.1 |
| 20260507143004 | 71 | 275 | 3.0 | 6.0 | 0.00 | 0.00 | 0.00 | 55 | 1012.1 |
| 20260507141503 | 71 | 224 | 4.0 | 8.0 | 0.00 | 0.00 | 0.00 | 56 | 1012.2 |
| 20260507134504 | 71 | 232 | 4.0 | 7.0 | 0.00 | 0.00 | 0.00 | 56 | 1012.3 |
| 20260507133005 | 71 | 228 | 4.0 | 7.0 | 0.00 | 0.00 | 0.00 | 55 | 1012.3 |
| 20260507131504 | 71 | 183 | 3.0 | 7.0 | 0.00 | 0.00 | 0.00 | 56 | 1012.8 |
| 20260507124511 | 70 | 190 | 4.0 | 8.0 | 0.00 | 0.00 | 0.00 | 58 | 1012.9 |
| 20260507123009 | 70 | 204 | 4.0 | 9.0 | 0.00 | 0.00 | 0.00 | 58 | 1013.0 |
| 20260507120004 | 70 | 359 | 3.0 | 8.0 | 0.00 | 0.00 | 0.00 | 59 | 1012.9 |
| 20260507114504 | 70 | 63 | 2.0 | 6.0 | 0.00 | 0.00 | 0.00 | 58 | 1012.9 |
| 20260507111519 | 70 | 248 | 1.0 | 4.0 | 0.00 | 0.00 | 0.00 | 59 | 1013.0 |
| 20260507110005 | 69 | 342 | 3.0 | 4.0 | 0.00 | 0.00 | 0.00 | 62 | 1013.3 |
| 20260507104518 | 68 | 17 | 4.0 | 7.0 | 0.00 | 0.00 | 0.00 | 63 | 1013.4 |
| 20260507103004 | 67 | 76 | 5.0 | 9.0 | 0.00 | 0.00 | 0.00 | 63 | 1013.3 |
| 20260507101507 | 67 | 131 | 2.0 | 9.0 | 0.00 | 0.00 | 0.00 | 65 | 1013.3 |
| 20260507094503 | 68 | 230 | 3.0 | 6.0 | 0.00 | 0.00 | 0.00 | 67 | 1013.3 |
| 20260507093005 | 68 | 104 | 1.0 | 6.0 | 0.00 | 0.00 | 0.00 | 67 | 1013.2 |
| 20260507091503 | 69 | 226 | 1.0 | 3.0 | 0.00 | 0.00 | 0.00 | 65 | 1013.2 |
| 20260507090004 | 67 | 331 | 3.0 | 6.0 | 0.00 | 0.00 | 0.00 | 71 | 1013.1 |
| 20260507084504 | 66 | 327 | 4.0 | 7.0 | 0.00 | 0.00 | 0.00 | 72 | 1013.0 |
| 20260507083004 | 67 | 326 | 2.0 | 6.0 | 0.00 | 0.00 | 0.00 | 72 | 1013.2 |
| 20260507080004 | 65 | 3 | 3.0 | 7.0 | 0.00 | 0.00 | 0.00 | 74 | 1013.1 |
| 20260507074505 | 65 | 333 | 2.0 | 5.0 | 0.00 | 0.00 | 0.00 | 75 | 1013.2 |
| 20260507071505 | 64 | 328 | 1.0 | 5.0 | 0.00 | 0.00 | 0.00 | 75 | 1013.3 |
| 20260507070009 | 63 | 348 | 2.0 | 4.0 | 0.00 | 0.00 | 0.00 | 77 | 1013.1 |
| 20260507063006 | 61 | 356 | 0.0 | 4.0 | 0.00 | 0.00 | 0.00 | 77 | 1013.0 |
| 20260507060005 | 60 | 358 | 1.0 | 4.0 | 0.00 | 0.01 | 0.00 | 80 | 1012.8 |
| 20260507054504 | 59 | 62 | 2.0 | 5.0 | 0.00 | 0.01 | 0.00 | 81 | 1012.6 |
| 20260507053004 | 58 | 2 | 1.0 | 3.0 | 0.00 | 0.01 | 0.00 | 84 | 1012.5 |
| 20260507051504 | 57 | 92 | 1.0 | 3.0 | 0.00 | 0.01 | 0.00 | 86 | 1012.3 |
| 20260507050004 | 56 | 101 | 1.0 | 3.0 | 0.00 | 0.01 | 0.00 | 88 | 1012.3 |
| 20260507043003 | 54 | 137 | 2.0 | 3.0 | 0.00 | 0.01 | 0.00 | 90 | 1012.1 |
| 20260507041504 | 54 | 130 | 1.0 | 3.0 | 0.00 | 0.01 | 0.00 | 90 | 1012.0 |
| 20260507034505 | 54 | 117 | 1.0 | 3.0 | 0.00 | 0.01 | 0.00 | 90 | 1012.0 |
| 20260507033004 | 55 | 116 | 2.0 | 3.0 | 0.00 | 0.01 | 0.00 | 89 | 1011.9 |
| 20260507031504 | 55 | 110 | 1.0 | 2.0 | 0.00 | 0.01 | 0.00 | 89 | 1011.9 |
| 20260507030008 | 56 | 3 | 1.0 | 3.0 | 0.00 | 0.01 | 0.00 | 88 | 1011.9 |
| 20260507024505 | 57 | 114 | 1.0 | 5.0 | 0.00 | 0.01 | 0.00 | 89 | 1011.9 |